Wind_Speed
38 40 42 43 43 45 44 44 46 46 46 46 46 46 47 47 46 47 48 49 50 51 52 52 52 53 53 53 54 54 55 55 56 56 57 57 57 58
41 41 43 44 45 46 46 47 47 47 47 47 48 48 48 49 49 49 50 51 51 52 53 53 54 55 55 56 57 57 57 58 58 59 59 59 60 60
45 45 45 45 47 47 47 47 47 48 49 49 49 50 50 51 50 51 52 52 53 53 54 54 54 55 56 57 58 58 59 59 60 60 61 61 62 62
46 46 46 46 46 46 46 47 48 49 49 50 51 51 52 52 53 53 53 53 54 54 54 54 55 56 57 58 58 59 60 60 61 62 62 63 64 64
46 47 47 47 47 47 48 48 49 49 49 50 50 50 51 52 53 54 54 54 54 55 55 56 57 58 59 59 59 59 60 61 62 63 63 64 64 65
47 47 47 48 48 48 49 49 49 50 51 51 51 51 52 53 54 54 55 54 55 56 56 57 58 58 59 59 60 60 61 62 63 63 63 64 64 64
47 47 48 48 48 49 49 49 50 50 51 52 52 53 54 54 55 55 55 55 56 56 57 58 58 58 59 59 60 61 62 62 62 63 63 63 63 63
46 47 48 48 49 50 50 50 50 51 51 51 52 52 53 54 55 55 56 56 57 57 58 59 59 59 59 60 60 61 62 62 63 63 63 63 63 64
47 47 47 48 49 49 49 49 49 50 51 51 52 52 53 54 55 55 56 57 57 58 59 58 59 59 59 60 60 60 61 63 63 62 63 63 63 62
47 47 47 47 48 48 48 48 48 49 50 51 52 53 54 55 55 56 57 57 58 58 59 59 58 58 59 59 60 61 62 62 62 63 63 61 60 59
46 46 46 46 47 47 48 48 48 49 50 51 52 54 54 55 56 57 57 57 57 58 58 57 57 58 58 58 59 61 62 62 61 60 59 58 57 56
44 45 45 46 47 47 48 49 49 50 52 52 53 54 54 54 55 56 56 56 56 56 56 57 58 59 59 58 59 60 60 60 59 57 56 55 55 54
44 45 46 46 47 48 49 49 50 51 52 52 53 53 53 54 54 55 55 55 55 55 56 57 58 59 60 59 58 58 57 56 55 54 54 54 53 52
44 45 46 47 48 49 50 50 50 51 51 51 52 52 53 53 54 54 54 54 55 55 56 57 57 58 58 57 55 53 53 53 52 52 52 52 51 51
45 46 47 48 48 49 49 50 50 50 51 51 52 53 54 54 54 54 54 54 55 55 56 56 56 56 56 54 51 50 50 50 50 50 49 49 49 49
46 47 47 48 48 48 49 50 50 51 51 51 52 53 54 53 52 52 53 54 54 53 53 54 54 53 51 50 48 48 48 48 47 47 47 46 47 46
46 46 47 47 48 48 49 50 51 51 52 52 52 52 51 51 51 51 52 52 52 52 51 51 50 49 48 47 46 46 46 46 45 45 45 44 44 44
45 46 47 48 48 49 49 50 51 51 51 51 50 50 50 50 50 50 50 50 50 49 48 47 47 46 45 45 45 45 45 45 44 44 44 43 42 42
44 44 46 47 48 48 49 49 49 49 49 49 49 49 49 49 49 48 48 47 46 45 44 44 44 44 43 43 43 44 44 43 43 43 42 42 41 40
42 43 44 45 45 46 46 46 46 46 46 46 46 46 46 46 46 45 44 43 42 42 42 42 43 43 43 42 40 41 42 41 40 40 40 39 38 37
41 42 42 42 42 42 43 43 43 43 43 43 43 43 42 42 42 41 41 41 40 40 40 41 41 41 40 39 38 38 38 38 38 38 37 37 35 34
40 39 39 39 40 40 40 40 40 39 39 39 39 39 39 38 38 38 38 38 38 38 38 38 37 37 36 36 36 35 35 36 36 36 35 33 32 30
37 36 36 36 37 37 37 36 36 36 36 36 36 35 35 36 36 35 35 35 35 35 35 35 34 35 34 34 34 34 33 33 33 32 31 29 28 27
Wind_Direction
258 259 258 258 260 260 260 262 263 264 266 267 268 269 271 272 273 273 275 277 278 279 279 279 280 281 281 282 283 283 283 283 283 283 283 283 283 283
259 261 260 260 262 263 262 263 265 266 267 269 269 269 270 272 273 274 276 277 278 278 279 279 280 281 282 282 283 283 283 283 283 283 283 283 283 283
260 262 264 265 265 264 265 266 267 267 269 270 270 271 272 274 274 275 276 277 278 278 279 280 281 281 282 282 283 283 283 283 283 283 284 284 284 284
261 262 263 264 265 265 266 267 267 268 269 271 272 272 273 273 274 275 276 276 278 279 280 281 282 282 283 283 284 284 284 284 284 284 284 284 284 284
261 261 262 263 265 266 267 267 268 268 270 271 272 272 272 273 274 275 276 277 279 280 281 281 282 283 284 284 285 285 285 285 285 285 285 285 285 285
262 262 263 264 266 267 268 269 269 270 271 271 272 271 272 272 274 276 277 278 279 280 282 283 283 284 285 285 285 286 287 287 287 286 286 286 286 285
264 264 264 265 266 267 269 270 271 272 272 272 273 274 274 274 274 277 278 278 279 281 282 283 284 285 285 286 286 287 287 287 287 287 286 287 287 287
265 265 266 266 267 269 270 271 272 273 273 273 274 275 275 276 276 277 278 279 280 281 281 282 283 284 285 286 286 287 286 287 288 287 287 288 288 288
266 268 268 268 268 269 270 271 273 273 274 274 275 276 277 277 277 278 279 280 281 281 282 282 283 284 285 286 286 286 287 288 288 288 289 289 289 289
268 268 269 269 269 270 271 272 273 273 274 274 276 278 279 278 278 279 279 280 280 281 282 283 283 284 285 285 286 286 287 288 289 289 290 290 289 289
269 269 270 270 270 270 271 272 273 274 275 276 278 279 280 280 280 280 280 281 281 281 282 283 283 284 284 285 287 287 288 288 289 290 290 290 290 290
269 270 270 271 271 271 273 273 274 276 277 278 279 280 281 280 280 281 282 283 284 284 283 283 284 284 285 285 286 288 289 289 289 289 289 289 290 290
270 271 271 271 271 272 274 274 275 276 277 278 279 280 280 281 281 282 283 284 284 285 285 285 285 286 287 287 287 288 288 288 288 288 289 290 290 290
271 272 272 271 272 273 274 276 277 277 278 279 279 279 280 281 281 282 283 284 284 285 285 286 286 288 288 289 288 287 287 288 288 289 289 289 289 290
272 272 272 272 273 274 275 275 277 278 278 279 279 279 280 281 282 282 282 283 285 285 285 286 287 288 288 288 288 287 287 288 289 289 289 289 289 289
273 272 273 273 273 274 275 276 277 278 279 279 279 280 281 281 281 282 282 284 285 285 285 286 287 288 288 289 289 289 289 289 289 289 289 290 290 290
274 274 274 274 275 276 277 277 277 278 279 279 280 280 281 281 281 282 283 284 285 285 286 286 287 288 288 289 289 289 288 289 289 289 289 290 291 291
274 274 274 275 275 277 277 278 279 279 280 280 280 280 281 281 282 282 283 284 285 285 285 285 286 287 288 289 289 289 289 289 289 290 290 290 290 290
275 276 276 276 276 277 278 279 279 279 280 280 280 281 281 281 282 282 283 283 283 284 284 285 286 287 288 288 288 289 289 290 290 290 291 291 291 290
277 277 278 278 278 278 279 280 280 279 279 280 281 281 282 282 282 282 282 282 282 283 285 286 287 288 288 289 288 288 290 291 291 291 291 292 291 290
278 278 278 279 279 280 280 280 281 280 280 280 281 282 282 282 282 282 282 282 283 285 286 287 288 289 289 290 290 290 291 292 292 293 293 292 291 290
280 280 280 281 281 282 282 282 282 282 282 282 282 283 283 283 283 284 284 285 285 286 288 288 289 289 290 291 291 291 291 293 294 295 294 293 291 289
280 281 281 282 282 283 282 282 282 282 283 283 283 283 284 284 285 286 286 286 287 288 289 289 289 290 290 291 291 291 292 294 295 295 294 293 291 289
Height
5692 5694 5695 5697 5698 5699 5700 5702 5704 5705 5706 5707 5707 5707 5707 5707 5707 5707 5707 5706 5705 5704 5703 5701 5700 5699 5697 5695 5694 5691 5690 5688 5686 5684 5682 5679 5677 5675
5681 5683 5685 5686 5687 5688 5689 5691 5692 5693 5694 5695 5695 5695 5695 5695 5695 5694 5694 5693 5692 5690 5689 5688 5686 5685 5683 5681 5679 5677 5675 5673 5670 5668 5666 5664 5661 5659
5671 5672 5673 5675 5676 5677 5678 5679 5680 5681 5682 5683 5682 5682 5682 5682 5682 5681 5681 5680 5678 5677 5675 5674 5672 5670 5669 5667 5664 5662 5659 5657 5654 5652 5649 5647 5644 5642
5659 5661 5662 5663 5664 5665 5666 5666 5667 5668 5669 5670 5670 5669 5669 5669 5668 5668 5667 5666 5664 5663 5661 5659 5657 5656 5654 5651 5649 5646 5643 5641 5638 5635 5633 5630 5627 5624
5647 5648 5650 5651 5652 5653 5653 5654 5654 5655 5655 5656 5656 5656 5655 5655 5654 5654 5652 5651 5650 5648 5646 5644 5642 5640 5638 5636 5633 5630 5627 5624 5621 5618 5615 5612 5609 5606
5635 5636 5637 5638 5639 5640 5640 5641 5641 5641 5642 5642 5642 5642 5642 5641 5640 5639 5638 5637 5636 5634 5632 5629 5627 5625 5622 5620 5618 5614 5611 5607 5604 5601 5597 5594 5590 5587
5623 5623 5624 5625 5626 5626 5627 5627 5627 5627 5627 5627 5627 5627 5627 5626 5626 5624 5624 5622 5621 5618 5617 5614 5611 5609 5606 5604 5601 5597 5594 5590 5587 5583 5579 5576 5572 5568
5610 5610 5611 5612 5612 5613 5613 5613 5613 5613 5613 5613 5613 5613 5612 5611 5610 5609 5608 5607 5606 5604 5601 5599 5596 5593 5590 5588 5584 5580 5577 5573 5569 5566 5562 5558 5554 5550
5597 5597 5598 5598 5598 5599 5599 5599 5599 5599 5599 5599 5599 5598 5597 5596 5595 5594 5592 5591 5590 5587 5585 5584 5580 5578 5575 5571 5567 5563 5559 5556 5552 5548 5544 5540 5536 5532
5584 5584 5585 5585 5585 5585 5585 5586 5585 5585 5585 5585 5585 5584 5582 5580 5579 5578 5576 5575 5574 5571 5567 5567 5565 5562 5559 5555 5550 5546 5542 5538 5534 5531 5527 5522 5518 5514
5571 5571 5572 5572 5572 5572 5572 5572 5572 5571 5570 5570 5569 5568 5566 5564 5562 5561 5560 5558 5557 5555 5551 5549 5548 5545 5544 5540 5534 5529 5524 5521 5517 5513 5509 5505 5501 5497
5559 5559 5559 5559 5559 5558 5558 5558 5558 5557 5556 5555 5554 5553 5551 5549 5546 5545 5543 5542 5540 5539 5535 5532 5530 5527 5527 5525 5520 5514 5508 5504 5500 5496 5492 5488 5484 5481
5546 5546 5546 5545 5545 5545 5544 5544 5543 5543 5542 5541 5539 5537 5535 5533 5531 5529 5527 5525 5524 5522 5518 5515 5513 5510 5507 5506 5504 5498 5492 5487 5484 5480 5476 5472 5469 5465
5533 5533 5532 5532 5531 5531 5530 5530 5529 5528 5527 5525 5524 5522 5520 5519 5516 5514 5512 5510 5507 5505 5502 5498 5496 5493 5490 5487 5485 5482 5477 5472 5468 5465 5461 5457 5453 5450
5520 5519 5519 5518 5518 5517 5516 5515 5514 5513 5511 5510 5509 5507 5505 5503 5501 5499 5497 5494 5492 5489 5485 5482 5479 5476 5473 5470 5468 5465 5462 5459 5454 5450 5446 5442 5439 5435
5506 5505 5504 5504 5503 5503 5502 5500 5499 5498 5496 5495 5493 5492 5490 5488 5486 5484 5482 5479 5477 5474 5470 5466 5463 5460 5458 5455 5452 5450 5446 5443 5440 5436 5432 5429 5425 5421
5492 5491 5490 5490 5489 5488 5487 5485 5484 5482 5481 5479 5478 5476 5475 5473 5471 5468 5466 5464 5462 5459 5456 5452 5448 5446 5444 5441 5438 5435 5432 5429 5426 5422 5419 5416 5412 5408
5478 5477 5476 5476 5475 5473 5472 5470 5469 5467 5465 5463 5462 5461 5459 5458 5456 5453 5451 5449 5447 5444 5442 5439 5436 5433 5431 5428 5425 5421 5419 5416 5413 5409 5406 5403 5400 5396
5464 5463 5462 5461 5460 5458 5457 5455 5454 5452 5450 5449 5447 5446 5444 5443 5441 5439 5437 5435 5433 5431 5428 5426 5423 5420 5418 5416 5413 5408 5405 5403 5399 5396 5393 5390 5387 5384
5450 5449 5448 5447 5445 5444 5442 5441 5439 5438 5436 5435 5433 5432 5430 5429 5427 5425 5423 5422 5420 5418 5416 5413 5410 5407 5404 5403 5401 5397 5392 5389 5387 5384 5381 5378 5375 5372
5437 5436 5434 5433 5432 5430 5429 5427 5426 5424 5423 5421 5420 5419 5417 5416 5414 5413 5411 5409 5407 5406 5404 5401 5398 5395 5392 5390 5388 5386 5382 5378 5375 5372 5369 5366 5364 5361
5424 5423 5422 5420 5419 5418 5416 5415 5414 5412 5411 5410 5408 5407 5406 5404 5403 5401 5399 5398 5396 5394 5392 5389 5386 5384 5381 5379 5377 5374 5372 5368 5364 5361 5358 5355 5352 5350
5412 5411 5410 5408 5407 5406 5405 5403 5402 5401 5400 5399 5398 5396 5395 5393 5392 5390 5388 5387 5385 5383 5381 5378 5376 5374 5371 5369 5366 5364 5361 5358 5355 5352 5349 5346 5344 5342